Regional Weather Roundup
Issued by NWS

Home | Current Version | Previous Version | Graphics & Text | Print | Product List | Glossary On
Versions: 1 2 3 4 5 6 7 8 9 10 11 12 13 14 15 16 17 18 19 20 21 22 23 24 25 26 27 28 29 30 31 32 33 34 35 36 37 38 39 40 41 42 43 44 45 46 47 48 49 50
000
ASUS43 KDTX 272101
RWRMI
MICHIGAN HOURLY REGIONAL WEATHER ROUNDUP
NATIONAL WEATHER SERVICE DETROIT/PONTIAC MI
500 PM EDT MON MAR 27 2017

NOTE: "FAIR" INDICATES FEW OR NO CLOUDS BELOW 12,000 FEET WITH NO
SIGNIFICANT WEATHER AND/OR OBSTRUCTION TO VISIBILITY.

MIZ047>049-052>055-059>063-066>070-074>076-081>083-272200-
SOUTHEAST LOWER MICHIGAN

CITY           SKY/WX    TMP DP  RH WIND       PRES   REMARKS
ADRIAN         CLOUDY    57  49  74 SW9       29.91S
ALMA           CLOUDY    50  44  80 W8        29.91S
ANN ARBOR      CLOUDY    59  48  67 MISG      29.88F
BAD AXE        CLOUDY    48  45  88 W7        29.90R
CARO           CLOUDY    53  47  79 W9        29.89R
DETROIT CITY   CLOUDY    60  50  69 SW12      29.88S
DETROIT        CLOUDY    62  49  62 SW9       29.89S
FLINT          CLOUDY    56  47  71 W8        29.89R
GROSSE ILE     CLOUDY    49  45  86 S6        29.89S
HILLSDALE      CLOUDY    54  46  76 SW8       29.89S
HOWELL         CLOUDY    57  46  67 W8        29.88S

CITY           SKY/WX    TMP DP  RH WIND       PRES   REMARKS
JACKSON        CLOUDY    57  48  72 VRB3      29.89S
LAMBERTVILLE   CLOUDY    60  49  65 W7        29.90S
LANSING        CLOUDY    54  45  71 W9        29.90F
LAPEER         CLOUDY    56  49  76 SW7       29.88S
MASON          CLOUDY    55  49  78 W7        29.90S
MONROE         CLOUDY    59  52  77 SW6       29.89S
MT. CLEMENS    CLOUDY    60  50  69 SW9       29.86F
PONTIAC        CLOUDY    58  48  69 W9        29.87S
PORT HOPE        N/A     37  35  92 CALM      29.89R
PORT HURON     CLOUDY    59  48  67 W5        29.88S
TRI CITIES     CLOUDY    50  45  83 W9        29.90R
MIDLAND        CLOUDY    50  41  72 NW7       29.89S
TROY           CLOUDY    60  48  64 W7        29.90S
SAGINAW HB     CLOUDY    52  43  71 W12       29.89S
$$
MIZ043>046-050>051-056>058-064>065-071>073-077>080-272200-
SOUTHWEST LOWER MICHIGAN

CITY           SKY/WX    TMP DP  RH WIND       PRES   REMARKS
BATTLE CREEK   CLOUDY    54  48  80 NW6       29.90F
BENTON HARBOR  CLOUDY    45  39  79 N5        29.91F
BIG RAPIDS     CLOUDY    45  39  78 W7        29.90R
COLDWATER      CLOUDY    56  49  75 SW7       29.89F
FREMONT        CLOUDY    46  39  77 W6        29.92R
HOLLAND        CLOUDY    44  38  79 W6        29.93S
GRAND RAPIDS   CLOUDY    49  44  83 W10       29.91S
IONIA          CLOUDY    51  43  75 SW9       29.90S
KALAMAZOO      CLOUDY    54  46  74 NW7       29.91S
LUDINGTON      CLOUDY    40  36  87 NW5       29.94S
MARSHALL       CLOUDY    56  49  76 W7        29.89S
MOUNT PLEASANT CLOUDY    48  42  79 W3        29.89S
MUSKEGON       CLOUDY    44  37  76 W8        29.94R
SOUTH HAVEN    CLOUDY    43  39  86 N7        29.92S
$$
MIZ016>042-272200-
NORTHERN LOWER MICHIGAN

CITY           SKY/WX    TMP DP  RH WIND       PRES   REMARKS
ALPENA         CLOUDY    42  39  89 NW9       29.90R
BEAVER ISLAND  CLOUDY    38  35  90 NW6       29.94S WCI  33
BELLAIRE       CLOUDY    38  35  88 NW3       29.95S
CADILLAC       CLOUDY    41  39  93 NW6       29.90R
CHARLEVOIX     CLOUDY    37  37  99 W5        29.97S WCI  33
FRANKFORT      CLOUDY    39  34  84 N5        29.95R
GAYLORD        CLOUDY    39  35  86 W8        29.90R FOG     WCI  33
GRAYLING       CLOUDY    41  37  87 W9        29.91R
HARBOR SPRINGS CLOUDY    34  33  99 SW6       29.94R WCI  29
HOUGHTON LAKE  CLOUDY    43  38  82 W7        29.89F
MANISTEE       CLOUDY    39  35  86 NW7       29.95R WCI  34
OSCODA         MIX PCPN  38  37  97 E5        29.89S WCI  35
PELLSTON       CLOUDY    38  35  89 NW8       29.93S FOG     WCI  32
ROGERS CITY    CLOUDY    40  36  86 NW7       29.92R WCI  35
TRAVERSE CITY  DRIZZLE   38  36  92 NE6       29.93R FOG     WCI  33
$$
MIZ007>008-015-272200-
EASTERN UPPER MICHIGAN

CITY           SKY/WX    TMP DP  RH WIND       PRES   REMARKS
KINROSS        LGT RAIN  36  34  92 NW8       29.92R WCI  30
MACKINAC ISLAN CLOUDY    35  35 100 W6        29.92S WCI  30
NEWBERRY       CLOUDY    35  34  95 NW8       29.93R WCI  29
S. S. MARIE    CLOUDY    37  33  85 W8        29.91R WCI  31
MUNISING         N/A     34  33  96 N10       29.96S WCI  26
$$
MIZ004>006-011>014-085-272200-
CENTRAL UPPER MICHIGAN

CITY           SKY/WX    TMP DP  RH WIND       PRES   REMARKS
MANISTIQUE     CLOUDY    37  37 100 NW12      29.94S WCI  30
ESCANABA       CLOUDY    43  36  76 N8        29.96R
MENOMINEE        N/A    N/A N/A N/A MISG        N/A
SAWYER-GWINN   CLOUDY    36  34  93 NE5       29.95F WCI  32
$$
MIZ001>003-009>011-084-272200-
WESTERN UPPER MICHIGAN

CITY           SKY/WX    TMP DP  RH WIND       PRES   REMARKS
IRON MOUNTAIN  CLOUDY    43  34  70 N7        29.94R
HOUGHTON       PTSUNNY   38  32  79 W8        29.96S WCI  32
COPPER HARBOR    N/A     36  33  89 N15       29.97S WCI  27
IRONWOOD       CLOUDY    48  31  51 NE6       29.97S
$$

ABBREVIATIONS USED IN REMARKS
   TC - TEMPERATURE IN CELSIUS
  WCI - WIND CHILL INDEX
   HX - HEAT INDEX
  VSB - VISIBILITY





USA.gov is the U.S. government's official web portal to all federal, state and local government web resources and services.